Miscellaneous Local Product
Issued by NWS North Platte, NE

Home | Current Version | Previous Version | Text Only | Print | Product List | Glossary On
Versions: 1 2 3 4 5 6 7 8 9 10 11 12 13 14 15 16 17 18 19 20 21 22 23 24 25 26 27 28 29 30 31 32 33 34 35 36 37 38 39 40 41 42 43 44 45 46 47 48 49 50
221
AXUS43 KLBF 010210
MISLBF


WESTERN AND NORTH CENTRAL NEBRASKA HOURLY WEATHER ROUNDUP
NATIONAL WEATHER SERVICE NORTH PLATTE NE
900 PM CDT SAT APR 30 2016

NOTE: "FAIR" INDICATES FEW OR NO CLOUDS BELOW 12,000 FEET WITH NO
SIGNIFICANT WEATHER AND/OR OBSTRUCTIONS TO VISIBILITY.

NOTE: STATIONS NOT REPORTING VARIABLES SUCH AS SKY/WEATHER OR
PRESSURE ARE PROVIDED BY RAWS AND APRS NETWORKS AND ARE NOT UNDER
NATIONAL WEATHER SERVICE QUALITY CONTROL.

...OBSERVATIONS IN AND NEAR THE EASTERN PANHANDLE OF NEBRASKA...

CITY           SKY/WX    TMP DP  RH WIND       PRES   REMARKS
PINE RIDGE     LGT RAIN  41  35  79 NE16G22   30.11R
CHADRON        LGT RAIN  43  34  70 NE24G30   30.13R
ALLIANCE       LGT RAIN  34  33  96 N18       30.07R WCI  23
SIDNEY         LGT SNOW  34  32  92 N23       30.06R FOG     WCI  22
CRESCENT LAKE    N/A     34  33  98 N20G28      N/A  WCI  23
BIG SPRINGS      N/A     35  34  95 N10         N/A  WCI  27
$$

...OBSERVATIONS IN NORTHERN NEBRASKA AND FAR SOUTHERN SOUTH DAKOTA...

CITY           SKY/WX    TMP DP  RH WIND       PRES   REMARKS
WINNER         LGT RAIN  43  39  86 NE23G31   30.07R
VALENTINE      LGT RAIN  39  36  89 NE18G28   30.05R WCI  30
THEDFORD       CLOUDY    36  35  96 N15G21    29.98R WCI  27
AINSWORTH      LGT RAIN  39  38  96 NE24G30   30.01R WCI  28
O`NEILL        DRIZZLE   42  40  94 NE18G25   29.96R
ORD            LGT RAIN  44  42  93 NE14      29.88R
BROKEN BOW     LGT RAIN  41  39  93 N12       29.89R FOG
VALENTINE NWR    N/A     37  36  97 NE16G23     N/A  WCI  27
BUTTE            N/A     40  39  95 N28G40      N/A  WCI  29
HALSEY           N/A     35  35  99 N7G20       N/A  WCI  29
CHAMBERS         N/A     42  41  98 N10         N/A
EWING            N/A     43  42  96 NE12G22     N/A
$$

...OBSERVATIONS IN SOUTHWEST NEBRASKA AND FAR NORTHEAST COLORADO...

CITY           SKY/WX    TMP DP  RH WIND       PRES   REMARKS
HOLYOKE        DRIZZLE   36  34  93 N25       29.97R WCI  23
IMPERIAL       LGT RAIN  35  33  92 N17       29.98R FOG     WCI  25
OGALLALA       DRIZZLE   36  33  90 N16G22    30.00R WCI  26
NORTH PLATTE   LGT SNOW  34  32  92 N20       29.94R FOG     WCI  23
MCCOOK         CLOUDY    39  34  82 N15       29.93R WCI  31
LEXINGTON      CLOUDY    38  36  90 N14       29.90R WCI  30
PAXTON           N/A     36  35  95 NW12        N/A  WCI  28
STAPLETON        N/A     32  31  96 CALM        N/A
GOTHENBURG       N/A     36  33  88 N13         N/A  WCI  27
CALLAWAY         N/A     33  32  97 N12         N/A  WCI  24
$$

...OBSERVATIONS IN CENTRAL LINCOLN COUNTY AREA...

CITY           SKY/WX    TMP DP  RH WIND       PRES   REMARKS
N.P. AIRPORT   LGT SNOW  34  32  92 N20       29.94R FOG     WCI  23
N.P. DOWNTOWN    N/A     34  33  96 N10         N/A  WCI  26
N.P. SOUTHEAST   N/A     34  33  96 N9G18       N/A  WCI  27
N.P. HILLCREST   N/A     33  32  97 N17         N/A  WCI  22
$$

...SOME OBSERVATIONS FROM AROUND THE REGION...

CITY           SKY/WX    TMP DP  RH WIND       PRES   REMARKS
DENVER         LGT SNOW  33  30  88 N15       30.12R FOG     WCI  23
LARAMIE        LGT SNOW  28  26  92 N12       30.13R FOG     WCI  18
CHEYENNE       LGT SNOW  31  28  89 N20G26    30.11R FOG     WCI  19
SCOTTSBLUFF    LGT RAIN  37  32  82 N9        30.13R WCI  30
RAPID CITY     CLOUDY    44  31  60 NE12      30.16R
BISMARCK       CLEAR     53  29  39 NE10      30.23R
PIERRE         CLOUDY    48  38  68 NE8       30.11R
SIOUX FALLS    CLOUDY    44  40  85 NE17      30.03R
OMAHA          CLOUDY    50  47  89 E17G24    29.83R
GRAND ISLAND   LGT RAIN  46  44  93 N9        29.85R FOG
KANSAS CITY    MOCLDY    59  48  67 N3        29.80R
WICHITA        PTCLDY    52  41  66 W6        29.87R
OKLAHOMA CITY  CLEAR     62  45  53 N10       29.88R
DALLAS         PTCLDY    69  57  65 N3        29.82R
AMARILLO       PTCLDY    51  39  63 N16       29.96R
DODGE CITY     MOCLDY    44  36  73 NW15      29.93R
HAYS           CLOUDY    46  34  61 NW10      29.89R
GOODLAND       CLOUDY    35  33  92 N23       29.95R WCI  23
$$




USA.gov is the U.S. government's official web portal to all federal, state and local government web resources and services.